Regional Weather Roundup
Issued by NWS Tiyan, Guam

Home | Current Version | Previous Version | Text Only | Print | Product List | Glossary On
Versions: 1 2 3 4 5 6 7 8 9 10 11 12 13 14 15 16 17 18 19 20 21 22 23 24 25 26 27 28 29 30 31 32 33 34 35 36 37 38 39 40 41 42 43 44 45 46 47 48 49 50
000
ASGM40 PGUM 210110
RWRGUM
WEATHER ROUNDUP FOR THE MARIANAS
NATIONAL WEATHER SERVICE TIYAN GU
1100 AM CHST MON MAY 21 2018

GUZ001>004-210200-
MARIANA ISLANDS-

CITY           SKY/WX    TMP DP  RH WIND       PRES   REMARKS
GUAM AIRPORT   MOSUNNY   90  79  70 E6        29.86F HX 105
ANDERSEN AFB   NOT AVBL
ROTA AIRPORT   MOSUNNY   84  75  74 E8        29.86S HX  92
TINIAN AP      MOSUNNY   84  77  79 NE8       29.83F HX  94
SAIPAN AP      MOSUNNY   88  79  74 E9        29.85F HX 102

$$




USA.gov is the U.S. government's official web portal to all federal, state and local government web resources and services.